Check out our new BloomSky Weather System.

Active alerts


No alerts


Thunder radar  blitzortung!


Rain radar more information rain snow radar


Visit our other weather sites:

Template documentation
and downloads

And another site



Weather Underground History page Text

Daily Summary for June 28, 2017 Units:  Metric    English   Both
« Previous Day
Next Day »
Daily Weekly Monthly Yearly Custom
  High: Low: Average:
Temperature: 32.3 °C 22.9 °C 27.3 °C
Dew Point: 25.2 °C 22.4 °C 23.7 °C
Humidity: 98 % 62 % 82 %
Wind Speed: 16.1 km/h 0 km/h 4 km/h
Wind Gust: 25.7 km/h - -
Wind:- - ESE
Pressure: 1013.8 hPa 1009.7 hPa -
Precipitation: 0 mm    
Historical Graphs
 
 
Tabular Data for June 28, 2017
Time Temperature Dew Point Pressure Wind Wind Speed Wind Gust Humidity Rainfall Rate (Hourly)
00:03 24.9 °C 23 °C 1013.4 hPa Calm   1.6 km/h 89 % 0 mm
00:08 24.8 °C 23 °C 1013.8 hPa Calm   1.6 km/h 90 % 0 mm
00:13 24.8 °C 23 °C 1013.8 hPa Calm   1.6 km/h 90 % 0 mm
00:18 24.7 °C 22.9 °C 1013.8 hPa Calm   1.6 km/h 90 % 0 mm
00:23 24.7 °C 23.1 °C 1013.8 hPa NNE 1.6 km/h 1.6 km/h 91 % 0 mm
00:28 24.7 °C 23.1 °C 1013.8 hPa Calm   1.6 km/h 91 % 0 mm
00:33 24.7 °C 23.1 °C 1013.8 hPa Calm   4.8 km/h 91 % 0 mm
00:38 24.6 °C 23 °C 1013.8 hPa Calm   4.8 km/h 91 % 0 mm
00:43 24.6 °C 23.2 °C 1013.8 hPa North 1.6 km/h 4.8 km/h 92 % 0 mm
00:48 24.6 °C 23.2 °C 1013.8 hPa ENE 1.6 km/h 3.2 km/h 92 % 0 mm
00:53 24.6 °C 23.2 °C 1013.8 hPa Calm   4.8 km/h 92 % 0 mm
00:54 24.6 °C 23.2 °C 1013.8 hPa Calm   4.8 km/h 92 % 0 mm
00:59 24.7 °C 23.3 °C 1013.8 hPa NE 1.6 km/h 4.8 km/h 92 % 0 mm
01:04 24.7 °C 23.5 °C 1013.8 hPa Calm   4.8 km/h 93 % 0 mm
01:09 24.6 °C 23.4 °C 1013.8 hPa Calm   4.8 km/h 93 % 0 mm
01:14 24.6 °C 23.4 °C 1013.8 hPa NNW 1.6 km/h 4.8 km/h 93 % 0 mm
01:19 24.6 °C 23.4 °C 1013.8 hPa Calm   4.8 km/h 93 % 0 mm
01:24 24.6 °C 23.4 °C 1013.8 hPa Calm   6.4 km/h 93 % 0 mm
01:29 24.6 °C 23.4 °C 1013.8 hPa Calm   8 km/h 93 % 0 mm
01:34 24.6 °C 23.4 °C 1013.8 hPa East 3.2 km/h 8 km/h 93 % 0 mm
01:39 24.5 °C 23.3 °C 1013.8 hPa NW 4.8 km/h 8 km/h 93 % 0 mm
01:44 24.5 °C 23.3 °C 1013.8 hPa Calm   9.7 km/h 93 % 0 mm
01:49 24.4 °C 23.2 °C 1013.8 hPa East 1.6 km/h 9.7 km/h 93 % 0 mm
01:54 24.4 °C 23.2 °C 1013.4 hPa ENE 3.2 km/h 9.7 km/h 93 % 0 mm
01:59 24.4 °C 23.2 °C 1013.4 hPa NNE 3.2 km/h 8 km/h 93 % 0 mm
02:04 24.3 °C 23.1 °C 1013.4 hPa NNW 1.6 km/h 8 km/h 93 % 0 mm
02:09 24.3 °C 23.1 °C 1013.4 hPa ESE 1.6 km/h 8 km/h 93 % 0 mm
02:14 24.3 °C 23.1 °C 1013.4 hPa Calm   4.8 km/h 93 % 0 mm
02:20 24.2 °C 23 °C 1013.4 hPa ESE 1.6 km/h 4.8 km/h 93 % 0 mm
02:25 24.2 °C 23 °C 1013.4 hPa East 3.2 km/h 4.8 km/h 93 % 0 mm
02:30 24.1 °C 23.1 °C 1013.4 hPa East 1.6 km/h 4.8 km/h 94 % 0 mm
02:35 24.1 °C 23.1 °C 1013.1 hPa Calm   4.8 km/h 94 % 0 mm
02:40 24.1 °C 23.1 °C 1013.1 hPa Calm   6.4 km/h 94 % 0 mm
02:45 24 °C 23 °C 1013.1 hPa Calm   6.4 km/h 94 % 0 mm
02:50 23.9 °C 22.9 °C 1013.1 hPa Calm   6.4 km/h 94 % 0 mm
02:55 23.9 °C 22.9 °C 1013.1 hPa Calm   3.2 km/h 94 % 0 mm
03:00 23.9 °C 22.9 °C 1013.1 hPa Calm   3.2 km/h 94 % 0 mm
03:05 23.9 °C 22.9 °C 1012.8 hPa Calm   4.8 km/h 94 % 0 mm
03:10 23.9 °C 22.9 °C 1012.8 hPa Calm   8 km/h 94 % 0 mm
03:15 23.8 °C 22.9 °C 1012.8 hPa ENE 1.6 km/h 8 km/h 95 % 0 mm
03:20 23.8 °C 22.9 °C 1012.8 hPa Calm   8 km/h 95 % 0 mm
03:25 23.8 °C 22.9 °C 1012.8 hPa ENE 1.6 km/h 4.8 km/h 95 % 0 mm
03:30 23.7 °C 22.9 °C 1012.8 hPa North 1.6 km/h 4.8 km/h 95 % 0 mm
03:35 23.7 °C 22.9 °C 1012.8 hPa Calm   6.4 km/h 95 % 0 mm
03:40 23.7 °C 22.9 °C 1012.8 hPa Calm   6.4 km/h 95 % 0 mm
03:45 23.6 °C 22.8 °C 1012.8 hPa Calm   6.4 km/h 95 % 0 mm
03:50 23.6 °C 22.8 °C 1012.8 hPa NNE 3.2 km/h 6.4 km/h 95 % 0 mm
03:55 23.6 °C 22.8 °C 1012.8 hPa Calm   3.2 km/h 95 % 0 mm
04:00 23.5 °C 22.7 °C 1012.8 hPa Calm   3.2 km/h 95 % 0 mm
04:05 23.5 °C 22.7 °C 1012.8 hPa Calm   3.2 km/h 95 % 0 mm
04:10 23.4 °C 22.6 °C 1012.8 hPa Calm   1.6 km/h 95 % 0 mm
04:15 23.4 °C 22.7 °C 1012.8 hPa Calm   1.6 km/h 96 % 0 mm
04:20 23.4 °C 22.7 °C 1012.4 hPa Calm   3.2 km/h 96 % 0 mm
04:22 23.3 °C 22.6 °C 1012.8 hPa Calm   3.2 km/h 96 % 0 mm
04:27 23.3 °C 22.6 °C 1012.8 hPa Calm   3.2 km/h 96 % 0 mm
04:32 23.3 °C 22.6 °C 1012.8 hPa Calm   3.2 km/h 96 % 0 mm
04:37 23.3 °C 22.6 °C 1012.8 hPa Calm   4.8 km/h 96 % 0 mm
04:42 23.3 °C 22.6 °C 1012.8 hPa Calm   4.8 km/h 96 % 0 mm
04:47 23.4 °C 22.7 °C 1012.8 hPa Calm   4.8 km/h 96 % 0 mm
04:52 23.4 °C 22.7 °C 1012.4 hPa North 1.6 km/h 4.8 km/h 96 % 0 mm
04:57 23.4 °C 22.7 °C 1012.4 hPa Calm   4.8 km/h 96 % 0 mm
05:02 23.3 °C 22.6 °C 1012.4 hPa Calm   4.8 km/h 96 % 0 mm
05:07 23.3 °C 22.6 °C 1012.4 hPa Calm   6.4 km/h 96 % 0 mm
05:12 23.3 °C 22.6 °C 1012.4 hPa Calm   6.4 km/h 96 % 0 mm
05:17 23.3 °C 22.6 °C 1012.4 hPa Calm   6.4 km/h 96 % 0 mm
05:18 23.3 °C 22.6 °C 1012.4 hPa Calm   6.4 km/h 96 % 0 mm
05:23 23.2 °C 22.5 °C 1012.4 hPa Calm   6.4 km/h 96 % 0 mm
05:28 23.2 °C 22.5 °C 1012.4 hPa North 1.6 km/h 6.4 km/h 96 % 0 mm
05:33 23.2 °C 22.5 °C 1012.4 hPa Calm   8 km/h 96 % 0 mm
05:38 23.2 °C 22.5 °C 1012.4 hPa Calm   8 km/h 96 % 0 mm
05:43 23.1 °C 22.4 °C 1012.4 hPa Calm   8 km/h 96 % 0 mm
05:48 23.1 °C 22.4 °C 1012.4 hPa Calm   8 km/h 96 % 0 mm
05:53 23.1 °C 22.4 °C 1012.4 hPa Calm   8 km/h 96 % 0 mm
05:58 23 °C 22.5 °C 1012.4 hPa Calm   4.8 km/h 97 % 0 mm
06:03 22.9 °C 22.4 °C 1012.4 hPa Calm   4.8 km/h 97 % 0 mm
06:08 22.9 °C 22.4 °C 1012.4 hPa Calm   4.8 km/h 97 % 0 mm
06:13 22.9 °C 22.4 °C 1012.4 hPa Calm   4.8 km/h 97 % 0 mm
06:18 22.9 °C 22.4 °C 1012.4 hPa WNW 1.6 km/h 4.8 km/h 97 % 0 mm
06:23 22.9 °C 22.4 °C 1012.4 hPa NNW 3.2 km/h 4.8 km/h 97 % 0 mm
06:28 22.9 °C 22.4 °C 1012.4 hPa Calm   4.8 km/h 97 % 0 mm
06:33 22.9 °C 22.4 °C 1012.4 hPa NW 3.2 km/h 4.8 km/h 97 % 0 mm
06:38 22.9 °C 22.4 °C 1012.4 hPa NW 1.6 km/h 4.8 km/h 97 % 0 mm
06:43 23 °C 22.5 °C 1012.4 hPa NNW 1.6 km/h 4.8 km/h 97 % 0 mm
06:48 23.1 °C 22.6 °C 1012.4 hPa Calm   8 km/h 97 % 0 mm
06:53 23.1 °C 22.6 °C 1012.4 hPa Calm   8 km/h 97 % 0 mm
06:58 23.1 °C 22.6 °C 1012.4 hPa NNE 1.6 km/h 8 km/h 97 % 0 mm
07:03 23.2 °C 22.7 °C 1012.4 hPa ENE 3.2 km/h 9.7 km/h 97 % 0 mm
07:09 23.2 °C 22.7 °C 1012.8 hPa NNW 1.6 km/h 9.7 km/h 97 % 0 mm
07:13 23.2 °C 22.7 °C 1012.4 hPa NNE 6.4 km/h 9.7 km/h 97 % 0 mm
07:18 23.2 °C 22.7 °C 1012.8 hPa ENE 3.2 km/h 9.7 km/h 97 % 0 mm
07:23 23.3 °C 22.8 °C 1012.8 hPa East 3.2 km/h 9.7 km/h 97 % 0 mm
07:29 23.3 °C 22.8 °C 1012.8 hPa East 9.7 km/h 9.7 km/h 97 % 0 mm
07:34 23.3 °C 22.8 °C 1012.8 hPa NNW 1.6 km/h 9.7 km/h 97 % 0 mm
07:39 23.3 °C 22.8 °C 1012.8 hPa East 1.6 km/h 9.7 km/h 97 % 0 mm
07:44 23.4 °C 22.9 °C 1012.8 hPa NNW 1.6 km/h 12.9 km/h 97 % 0 mm
07:47 23.4 °C 23.1 °C 1012.8 hPa NNE 4.8 km/h 12.9 km/h 98 % 0 mm
07:49 23.5 °C 23 °C 1012.8 hPa NE 4.8 km/h 12.9 km/h 97 % 0 mm
07:54 23.6 °C 23.1 °C 1012.8 hPa ENE 6.4 km/h 12.9 km/h 97 % 0 mm
07:59 23.7 °C 23.2 °C 1012.8 hPa NNW 3.2 km/h 11.3 km/h 97 % 0 mm
08:04 23.7 °C 23.2 °C 1012.8 hPa East 1.6 km/h 11.3 km/h 97 % 0 mm
08:09 23.8 °C 23.3 °C 1012.8 hPa East 4.8 km/h 11.3 km/h 97 % 0 mm
08:14 23.9 °C 23.4 °C 1012.8 hPa NE 3.2 km/h 11.3 km/h 97 % 0 mm
08:19 24.1 °C 23.6 °C 1012.8 hPa North 3.2 km/h 11.3 km/h 97 % 0 mm
08:24 24.3 °C 23.8 °C 1012.8 hPa East 9.7 km/h 11.3 km/h 97 % 0 mm
08:30 24.4 °C 23.7 °C 1012.8 hPa ESE 3.2 km/h 11.3 km/h 96 % 0 mm
08:35 24.6 °C 23.9 °C 1012.8 hPa NE 1.6 km/h 11.3 km/h 96 % 0 mm
08:40 24.8 °C 23.9 °C 1012.8 hPa SE 3.2 km/h 11.3 km/h 95 % 0 mm
08:45 25.1 °C 24.1 °C 1012.8 hPa Calm   11.3 km/h 94 % 0 mm
08:50 25.4 °C 24.2 °C 1012.4 hPa ESE 8 km/h 11.3 km/h 93 % 0 mm
08:55 25.9 °C 24.5 °C 1012.4 hPa NW 3.2 km/h 11.3 km/h 92 % 0 mm
09:00 26.1 °C 24.3 °C 1012.4 hPa NW 8 km/h 9.7 km/h 90 % 0 mm
09:05 26.4 °C 24.4 °C 1012.8 hPa ENE 4.8 km/h 9.7 km/h 89 % 0 mm
09:10 26.5 °C 24.2 °C 1012.4 hPa NW 3.2 km/h 11.3 km/h 87 % 0 mm
09:15 26.8 °C 24.3 °C 1012.8 hPa NE 11.3 km/h 11.3 km/h 86 % 0 mm
09:20 26.9 °C 24.4 °C 1012.4 hPa NNW 6.4 km/h 11.3 km/h 86 % 0 mm
09:25 27.3 °C 24.6 °C 1012.8 hPa NE 8 km/h 11.3 km/h 85 % 0 mm
09:30 27.3 °C 24.2 °C 1012.8 hPa NNW 1.6 km/h 11.3 km/h 83 % 0 mm
09:31 27.3 °C 24.4 °C 1012.4 hPa North 1.6 km/h 11.3 km/h 84 % 0 mm
09:36 27.5 °C 24.7 °C 1012.8 hPa Calm   9.7 km/h 85 % 0 mm
09:41 27.8 °C 24.4 °C 1012.8 hPa ENE 4.8 km/h 9.7 km/h 82 % 0 mm
09:46 27.9 °C 24.5 °C 1012.8 hPa ESE 6.4 km/h 9.7 km/h 82 % 0 mm
09:51 27.9 °C 24.5 °C 1012.8 hPa ENE 1.6 km/h 9.7 km/h 82 % 0 mm
09:56 28 °C 24.4 °C 1012.8 hPa East 6.4 km/h 9.7 km/h 81 % 0 mm
10:01 28 °C 24.4 °C 1012.8 hPa East 3.2 km/h 11.3 km/h 81 % 0 mm
10:02 27.9 °C 24.3 °C 1012.8 hPa ESE 6.4 km/h 11.3 km/h 81 % 0 mm
10:07 27.9 °C 24.3 °C 1012.8 hPa SE 6.4 km/h 12.9 km/h 81 % 0 mm
10:12 27.9 °C 24.1 °C 1012.8 hPa ESE 6.4 km/h 16.1 km/h 80 % 0 mm
10:17 28.1 °C 24.5 °C 1012.8 hPa ENE 6.4 km/h 16.1 km/h 81 % 0 mm
10:22 28.3 °C 24.9 °C 1012.8 hPa ESE 1.6 km/h 16.1 km/h 82 % 0 mm
10:23 28.4 °C 25 °C 1012.8 hPa East 4.8 km/h 16.1 km/h 82 % 0 mm
10:28 28.7 °C 24.5 °C 1012.8 hPa ESE 4.8 km/h 14.5 km/h 78 % 0 mm
10:33 28.9 °C 24.7 °C 1012.8 hPa South 6.4 km/h 14.5 km/h 78 % 0 mm
10:38 28.9 °C 24.7 °C 1012.8 hPa East 4.8 km/h 14.5 km/h 78 % 0 mm
10:43 28.9 °C 24.2 °C 1012.8 hPa SE 9.7 km/h 14.5 km/h 76 % 0 mm
10:48 28.8 °C 24.1 °C 1012.8 hPa NE 3.2 km/h 14.5 km/h 76 % 0 mm
10:53 28.7 °C 24.3 °C 1012.8 hPa ENE 3.2 km/h 14.5 km/h 77 % 0 mm
10:58 28.7 °C 24.5 °C 1012.8 hPa ESE 8 km/h 14.5 km/h 78 % 0 mm
11:03 28.6 °C 24.4 °C 1012.8 hPa ENE 14.5 km/h 16.1 km/h 78 % 0 mm
11:08 28.4 °C 24.6 °C 1012.8 hPa East 16.1 km/h 16.1 km/h 80 % 0 mm
11:13 28.7 °C 24.7 °C 1012.8 hPa NNW 6.4 km/h 16.1 km/h 79 % 0 mm
11:18 29 °C 24.6 °C 1012.8 hPa NW 4.8 km/h 16.1 km/h 77 % 0 mm
11:23 29.4 °C 24.7 °C 1012.8 hPa North 3.2 km/h 16.1 km/h 76 % 0 mm
11:28 29.6 °C 24.7 °C 1012.8 hPa SSE 8 km/h 12.9 km/h 75 % 0 mm
11:33 29.5 °C 24.4 °C 1013.1 hPa SE 4.8 km/h 14.5 km/h 74 % 0 mm
11:38 29.4 °C 24.5 °C 1012.8 hPa SE 1.6 km/h 16.1 km/h 75 % 0 mm
11:43 29.9 °C 24.8 °C 1012.8 hPa ESE 6.4 km/h 19.3 km/h 74 % 0 mm
11:48 30.2 °C 24.8 °C 1012.8 hPa SSE 6.4 km/h 19.3 km/h 73 % 0 mm
11:53 30.2 °C 24.8 °C 1012.8 hPa NE 4.8 km/h 19.3 km/h 73 % 0 mm
11:58 30.1 °C 25.2 °C 1012.8 hPa Calm   14.5 km/h 75 % 0 mm
12:03 30.2 °C 24.8 °C 1012.8 hPa East 6.4 km/h 14.5 km/h 73 % 0 mm
12:08 30.2 °C 24.8 °C 1012.8 hPa East 3.2 km/h 17.7 km/h 73 % 0 mm
12:14 30.1 °C 24.7 °C 1012.8 hPa ESE 3.2 km/h 17.7 km/h 73 % 0 mm
12:19 30.1 °C 25 °C 1012.8 hPa ENE 4.8 km/h 17.7 km/h 74 % 0 mm
12:24 30.5 °C 25.1 °C 1012.8 hPa NE 9.7 km/h 16.1 km/h 73 % 0 mm
12:29 30.4 °C 24.8 °C 1012.8 hPa East 3.2 km/h 14.5 km/h 72 % 0 mm
12:34 30.3 °C 24.2 °C 1012.4 hPa East 4.8 km/h 12.9 km/h 70 % 0 mm
12:39 30.6 °C 25 °C 1012.4 hPa ENE 6.4 km/h 20.9 km/h 72 % 0 mm
12:43 30.7 °C 24.1 °C 1012.4 hPa ENE 4.8 km/h 20.9 km/h 68 % 0 mm
12:48 30.4 °C 24.1 °C 1012.4 hPa ENE 9.7 km/h 20.9 km/h 69 % 0 mm
12:53 30.6 °C 25 °C 1012.4 hPa NNW 3.2 km/h 14.5 km/h 72 % 0 mm
12:58 30.6 °C 24 °C 1012.4 hPa ESE 9.7 km/h 14.5 km/h 68 % 0 mm
13:03 30.8 °C 24.7 °C 1012.1 hPa ENE 4.8 km/h 14.5 km/h 70 % 0 mm
13:08 31.1 °C 24.5 °C 1012.1 hPa ENE 8 km/h 14.5 km/h 68 % 0 mm
13:13 30.9 °C 23.8 °C 1012.1 hPa NNE 6.4 km/h 14.5 km/h 66 % 0 mm
13:18 30.8 °C 24.2 °C 1012.1 hPa ENE 8 km/h 14.5 km/h 68 % 0 mm
13:24 31.2 °C 24.6 °C 1011.7 hPa East 9.7 km/h 14.5 km/h 68 % 0 mm
13:29 31.2 °C 24.6 °C 1011.7 hPa ENE 4.8 km/h 17.7 km/h 68 % 0 mm
13:34 31.3 °C 24.4 °C 1011.7 hPa NNW 3.2 km/h 17.7 km/h 67 % 0 mm
13:39 31.2 °C 24.8 °C 1011.7 hPa WSW 3.2 km/h 17.7 km/h 69 % 0 mm
13:44 31.2 °C 24.1 °C 1011.7 hPa SSE 6.4 km/h 16.1 km/h 66 % 0 mm
13:49 31.4 °C 24.5 °C 1011.4 hPa SE 8 km/h 16.1 km/h 67 % 0 mm
13:54 31.4 °C 24.5 °C 1011.4 hPa SE 8 km/h 16.1 km/h 67 % 0 mm
13:59 31.7 °C 24.3 °C 1011.4 hPa East 9.7 km/h 19.3 km/h 65 % 0 mm
14:04 31.6 °C 24.5 °C 1011.4 hPa SE 9.7 km/h 19.3 km/h 66 % 0 mm
14:09 31.4 °C 24.3 °C 1011.4 hPa East 8 km/h 19.3 km/h 66 % 0 mm
14:14 31.4 °C 24.5 °C 1011.4 hPa NE 11.3 km/h 19.3 km/h 67 % 0 mm
14:19 31.6 °C 25 °C 1011.4 hPa SE 6.4 km/h 17.7 km/h 68 % 0 mm
14:24 31.8 °C 24.4 °C 1011.4 hPa ESE 6.4 km/h 16.1 km/h 65 % 0 mm
14:29 31.7 °C 24.6 °C 1011.1 hPa East 8 km/h 22.5 km/h 66 % 0 mm
14:34 32 °C 24.8 °C 1011.1 hPa ENE 3.2 km/h 22.5 km/h 66 % 0 mm
14:39 32 °C 24.8 °C 1011.1 hPa East 11.3 km/h 22.5 km/h 66 % 0 mm
14:44 31.8 °C 24.9 °C 1011.1 hPa NNW 4.8 km/h 17.7 km/h 67 % 0 mm
14:49 32 °C 25.1 °C 1011.1 hPa ESE 9.7 km/h 17.7 km/h 67 % 0 mm
14:54 32.1 °C 24.9 °C 1011.1 hPa South 4.8 km/h 17.7 km/h 66 % 0 mm
14:59 32.1 °C 24.7 °C 1011.1 hPa ENE 8 km/h 14.5 km/h 65 % 0 mm
15:04 32 °C 24.8 °C 1011.1 hPa NE 6.4 km/h 16.1 km/h 66 % 0 mm
15:09 32.1 °C 24.9 °C 1011.1 hPa NE 4.8 km/h 16.1 km/h 66 % 0 mm
15:14 31.9 °C 24.2 °C 1011.1 hPa East 8 km/h 16.1 km/h 64 % 0 mm
15:19 31.8 °C 24.7 °C 1010.7 hPa ENE 6.4 km/h 14.5 km/h 66 % 0 mm
15:24 31.8 °C 24.7 °C 1011.1 hPa NE 8 km/h 14.5 km/h 66 % 0 mm
15:29 32.2 °C 24.8 °C 1011.1 hPa SE 3.2 km/h 16.1 km/h 65 % 0 mm
15:34 32.3 °C 24.9 °C 1010.7 hPa North 6.4 km/h 16.1 km/h 65 % 0 mm
15:39 32.1 °C 24.7 °C 1010.7 hPa ESE 3.2 km/h 16.1 km/h 65 % 0 mm
15:49 31.9 °C 24.5 °C 1010.4 hPa SSE 6.4 km/h 16.1 km/h 65 % 0 mm
15:54 32.2 °C 24.5 °C 1010.4 hPa ESE 3.2 km/h 16.1 km/h 64 % 0 mm
15:59 32.2 °C 24 °C 1010.4 hPa NE 4.8 km/h 16.1 km/h 62 % 0 mm
16:04 31.9 °C 24.5 °C 1010.4 hPa ESE 6.4 km/h 17.7 km/h 65 % 0 mm
16:09 31.8 °C 24.1 °C 1010.4 hPa SE 4.8 km/h 17.7 km/h 64 % 0 mm
16:14 31.7 °C 24 °C 1010.4 hPa SE 8 km/h 17.7 km/h 64 % 0 mm
16:19 31.8 °C 24.4 °C 1010.4 hPa East 6.4 km/h 19.3 km/h 65 % 0 mm
16:25 31.9 °C 24 °C 1010.4 hPa ENE 6.4 km/h 19.3 km/h 63 % 0 mm
16:30 32 °C 24.1 °C 1010 hPa East 4.8 km/h 24.1 km/h 63 % 0 mm
16:35 32.1 °C 24.7 °C 1010 hPa SE 8 km/h 24.1 km/h 65 % 0 mm
16:40 31.9 °C 24 °C 1010 hPa ESE 6.4 km/h 24.1 km/h 63 % 0 mm
16:45 31.8 °C 24.1 °C 1010 hPa East 4.8 km/h 19.3 km/h 64 % 0 mm
16:50 31.9 °C 23.7 °C 1010 hPa WNW 1.6 km/h 19.3 km/h 62 % 0 mm
16:55 31.7 °C 23.5 °C 1010 hPa SE 1.6 km/h 22.5 km/h 62 % 0 mm
17:00 31.7 °C 24 °C 1010.4 hPa Calm   22.5 km/h 64 % 0 mm
17:05 31.8 °C 23.6 °C 1010.4 hPa North 6.4 km/h 22.5 km/h 62 % 0 mm
17:10 31.9 °C 24 °C 1010.4 hPa North 4.8 km/h 19.3 km/h 63 % 0 mm
17:15 31.9 °C 24 °C 1010 hPa North 8 km/h 16.1 km/h 63 % 0 mm
17:20 32 °C 24.1 °C 1010 hPa ESE 4.8 km/h 14.5 km/h 63 % 0 mm
17:25 32.1 °C 24.7 °C 1010 hPa SSE 8 km/h 14.5 km/h 65 % 0 mm
17:30 32.1 °C 24.2 °C 1010 hPa NE 12.9 km/h 17.7 km/h 63 % 0 mm
17:35 31.6 °C 23.7 °C 1010 hPa East 3.2 km/h 17.7 km/h 63 % 0 mm
17:40 31.2 °C 23.3 °C 1010 hPa ENE 6.4 km/h 17.7 km/h 63 % 0 mm
17:45 31 °C 23.6 °C 1010 hPa NNE 3.2 km/h 12.9 km/h 65 % 0 mm
17:50 31.3 °C 23.9 °C 1010 hPa East 4.8 km/h 12.9 km/h 65 % 0 mm
17:55 31.3 °C 23.9 °C 1009.7 hPa ENE 6.4 km/h 19.3 km/h 65 % 0 mm
18:00 31.4 °C 23.8 °C 1010 hPa South 12.9 km/h 19.3 km/h 64 % 0 mm
18:05 31.6 °C 24.2 °C 1009.7 hPa NE 9.7 km/h 16.1 km/h 65 % 0 mm
18:10 31.6 °C 24.2 °C 1009.7 hPa SE 6.4 km/h 16.1 km/h 65 % 0 mm
18:15 31.5 °C 24.1 °C 1009.7 hPa ESE 1.6 km/h 19.3 km/h 65 % 0 mm
18:20 31.5 °C 24.4 °C 1009.7 hPa SSE 6.4 km/h 19.3 km/h 66 % 0 mm
18:25 31.2 °C 24.3 °C 1009.7 hPa ESE 6.4 km/h 19.3 km/h 67 % 0 mm
18:30 30.8 °C 24.4 °C 1009.7 hPa South 11.3 km/h 24.1 km/h 69 % 0 mm
18:35 30.5 °C 24.6 °C 1009.7 hPa SSE 4.8 km/h 24.1 km/h 71 % 0 mm
18:40 30.3 °C 24.7 °C 1009.7 hPa East 14.5 km/h 24.1 km/h 72 % 0 mm
18:45 30.3 °C 24.7 °C 1009.7 hPa ENE 11.3 km/h 19.3 km/h 72 % 0 mm
18:50 30.2 °C 24.1 °C 1009.7 hPa SSE 8 km/h 19.3 km/h 70 % 0 mm
18:55 30.2 °C 24.4 °C 1009.7 hPa SE 3.2 km/h 19.3 km/h 71 % 0 mm
19:00 30.3 °C 24.4 °C 1009.7 hPa East 3.2 km/h 19.3 km/h 71 % 0 mm
19:05 30.3 °C 24.4 °C 1009.7 hPa East 9.7 km/h 16.1 km/h 71 % 0 mm
19:10 30.2 °C 24.1 °C 1009.7 hPa ESE 12.9 km/h 14.5 km/h 70 % 0 mm
19:15 30 °C 24.2 °C 1009.7 hPa SE 3.2 km/h 19.3 km/h 71 % 0 mm
19:20 30.1 °C 24.3 °C 1009.7 hPa North 3.2 km/h 19.3 km/h 71 % 0 mm
19:25 30.2 °C 24.6 °C 1009.7 hPa ENE 4.8 km/h 19.3 km/h 72 % 0 mm
19:30 30.1 °C 24.5 °C 1010 hPa East 14.5 km/h 25.7 km/h 72 % 0 mm
19:35 29.6 °C 24.2 °C 1009.7 hPa SSE 9.7 km/h 25.7 km/h 73 % 0 mm
19:40 29.2 °C 24.3 °C 1010 hPa South 6.4 km/h 25.7 km/h 75 % 0 mm
19:45 28.9 °C 24.2 °C 1010 hPa East 4.8 km/h 22.5 km/h 76 % 0 mm
19:50 28.7 °C 24 °C 1010 hPa East 3.2 km/h 19.3 km/h 76 % 0 mm
19:55 28.6 °C 24.2 °C 1010 hPa ESE 3.2 km/h 16.1 km/h 77 % 0 mm
20:00 28.5 °C 24.3 °C 1010 hPa ESE 12.9 km/h 22.5 km/h 78 % 0 mm
20:05 28.3 °C 23.9 °C 1010 hPa SE 9.7 km/h 22.5 km/h 77 % 0 mm
20:10 28.2 °C 23.8 °C 1010 hPa East 8 km/h 22.5 km/h 77 % 0 mm
20:15 28.2 °C 24 °C 1010 hPa SE 4.8 km/h 17.7 km/h 78 % 0 mm
20:20 28.1 °C 24.1 °C 1010 hPa SE 6.4 km/h 17.7 km/h 79 % 0 mm
20:25 28 °C 24 °C 1010 hPa ESE 3.2 km/h 17.7 km/h 79 % 0 mm
20:30 27.9 °C 24.1 °C 1010 hPa ENE 4.8 km/h 17.7 km/h 80 % 0 mm
20:35 27.8 °C 24.2 °C 1010 hPa East 4.8 km/h 12.9 km/h 81 % 0 mm
20:40 27.7 °C 24.3 °C 1010 hPa SE 3.2 km/h 12.9 km/h 82 % 0 mm
20:45 27.5 °C 24.1 °C 1010 hPa Calm   14.5 km/h 82 % 0 mm
20:50 27.4 °C 24.1 °C 1010 hPa ESE 3.2 km/h 19.3 km/h 82 % 0 mm
20:56 27.3 °C 24 °C 1010 hPa ESE 3.2 km/h 19.3 km/h 82 % 0 mm
21:01 27.2 °C 23.9 °C 1010 hPa SE 6.4 km/h 19.3 km/h 82 % 0 mm
21:06 27.2 °C 24.1 °C 1010 hPa Calm   16.1 km/h 83 % 0 mm
21:11 27.1 °C 24 °C 1010 hPa East 3.2 km/h 16.1 km/h 83 % 0 mm
21:16 27.1 °C 24.2 °C 1010.4 hPa ENE 1.6 km/h 16.1 km/h 84 % 0 mm
21:21 27 °C 24.1 °C 1010 hPa Calm   16.1 km/h 84 % 0 mm
21:26 26.9 °C 24 °C 1010 hPa SE 9.7 km/h 11.3 km/h 84 % 0 mm
21:31 26.8 °C 23.9 °C 1010 hPa SSE 1.6 km/h 11.3 km/h 84 % 0 mm
21:36 26.8 °C 23.9 °C 1010.4 hPa ESE 4.8 km/h 11.3 km/h 84 % 0 mm
21:41 26.7 °C 23.8 °C 1010.4 hPa SSE 1.6 km/h 11.3 km/h 84 % 0 mm
21:46 26.7 °C 23.8 °C 1010.4 hPa ESE 3.2 km/h 11.3 km/h 84 % 0 mm
21:51 26.6 °C 23.5 °C 1010.4 hPa East 4.8 km/h 16.1 km/h 83 % 0 mm
21:56 26.6 °C 23.5 °C 1010.4 hPa SSE 1.6 km/h 16.1 km/h 83 % 0 mm
22:01 26.6 °C 23.3 °C 1010.7 hPa NE 8 km/h 19.3 km/h 82 % 0 mm
22:06 26.6 °C 23.3 °C 1010.7 hPa East 3.2 km/h 19.3 km/h 82 % 0 mm
22:11 26.5 °C 23.2 °C 1010.7 hPa East 6.4 km/h 19.3 km/h 82 % 0 mm
22:16 26.4 °C 23.1 °C 1010.7 hPa ESE 3.2 km/h 12.9 km/h 82 % 0 mm
22:21 26.4 °C 23.1 °C 1010.7 hPa ESE 8 km/h 9.7 km/h 82 % 0 mm
22:26 26.4 °C 23.1 °C 1010.7 hPa Calm   9.7 km/h 82 % 0 mm
22:31 26.3 °C 23 °C 1011.1 hPa SE 1.6 km/h 11.3 km/h 82 % 0 mm
22:36 26.3 °C 23 °C 1010.7 hPa ESE 6.4 km/h 14.5 km/h 82 % 0 mm
22:41 26.2 °C 23.1 °C 1011.1 hPa ESE 3.2 km/h 14.5 km/h 83 % 0 mm
22:46 26.2 °C 23.1 °C 1011.1 hPa ESE 6.4 km/h 14.5 km/h 83 % 0 mm
22:51 26.2 °C 23.1 °C 1011.1 hPa Calm   14.5 km/h 83 % 0 mm
22:56 26.1 °C 23.2 °C 1011.1 hPa SE 6.4 km/h 8 km/h 84 % 0 mm
23:01 26.1 °C 23.2 °C 1011.1 hPa East 4.8 km/h 8 km/h 84 % 0 mm
23:06 26 °C 23.1 °C 1011.1 hPa ESE 1.6 km/h 8 km/h 84 % 0 mm
23:11 25.9 °C 23.2 °C 1011.1 hPa ENE 1.6 km/h 8 km/h 85 % 0 mm
23:16 25.9 °C 23.2 °C 1011.1 hPa Calm   8 km/h 85 % 0 mm
23:21 25.9 °C 23.4 °C 1011.1 hPa SSE 1.6 km/h 11.3 km/h 86 % 0 mm
23:26 25.9 °C 23.4 °C 1011.1 hPa SE 4.8 km/h 11.3 km/h 86 % 0 mm
23:31 25.8 °C 23.3 °C 1011.1 hPa SSE 3.2 km/h 11.3 km/h 86 % 0 mm
23:36 25.8 °C 23.3 °C 1011.1 hPa ESE 3.2 km/h 11.3 km/h 86 % 0 mm
23:41 25.8 °C 23.5 °C 1011.1 hPa ESE 3.2 km/h 11.3 km/h 87 % 0 mm
23:46 25.7 °C 23.4 °C 1011.1 hPa Calm   8 km/h 87 % 0 mm
23:51 25.7 °C 23.4 °C 1011.1 hPa ESE 1.6 km/h 8 km/h 87 % 0 mm
23:56 25.6 °C 23.3 °C 1011.4 hPa SE 3.2 km/h 8 km/h 87 % 0 mm
23:58 25.6 °C 23.3 °C 1011.4 hPa Calm   8 km/h 87 % 0 mm
Spring, Texas: Villages of Bridgestone
Compliments of Weather Underground - 2.75 mb

Script developed by  Jim McMurry - jmcmurry@mwt.net Adapted for the template by  Wim van der Kuil - Leuven-Template.eu

You find our weather info also at:

UK Metoffice

WeatherCloud

Weather Underground

Mid-South Weather Network

AWEKAS

Citizen Weather Observer Program (CWOP)

HAMweather, WeatherForYou, PWS Weather

Equipment we use:

Weather-station
Davis Vantage Vue

Weather-program
Meteohub

Weather-server
Debian 7.9 x86 (Guest)

Provider
DreamHost

Davis Vantage Vue

Meteohub

Debian 7.9 x86 (Guest)

DreamHost